Showing default

NUSAT-43 (R DIENG-KUNTZ), 56968

Orbit data source: Space-Track

NUSAT-43 (R DIENG-KUNTZ), 56968 is a payload satellite owned by URUGUS S.A. (AR) in SSO that was launched on Mon, 12 Jun 2023 UTC via an FALCON 9 launch vehicle from the Air Force Western Test Range (AFWTR). Payload-class satellites include a variety of spacecraft equipped with specific instruments for various scientific and technological missions. These include communications satellites like Starlink; space stations such as the ISS; scientific satellites like the Hubble; Earth observation satellites from companies like Planet Labs, Umbra, and HawkEye 360; GPS; miniature CubeSats for education and research; and military/defense satellites.

Not visible in the next 10 days
Identifier
56968, 2023-084AN
Orbit
SSO
Country
Flag of ARAR / ARGN
Related business
Manufacturer
URUGUS S.A.
Mission
Operational Commercial Imaging
Bus & Motor
NEWSAT V, Unknown motor
Mass
41.5 kg wet, 38.5 kg dry
Launch date (UTC)
2023-06-12 (3 years ago)
Launch vehicle
FALCON 9
Launch site
Air Force Western Test Range (AFWTR)
Object type
Payload
Rocket body
Debris
Shape & HBR
Box, 1.0 m
Radar Cross Section
0.542 m², Medium (>0.1 m² and < 1m²)

Expand to show TLE details & history
Last TLE update: 2 hours ago

TLE from 2 hours ago
0 NUSAT-43 (R DIENG-KUNTZ)
1 56968U 23084AN  26129.89347264  .00631334  20376-3  79751-3 0  9997
2 56968  97.4395 277.6553 0009301 270.4587  89.5629 16.07464392163274
Epoch: 2026-05-09T21:26Z
TLE epoch observation values (Epoch: 2026-05-09T21:26:36.036Z)
Latitude
-0.00002°
Longitude
88.30078°
Altitude
256.974 km
Speed
7.753 km/s
True Right ascension
18h 30m 37s
True Declination
0° 00' 00"
Sunlit
Object was in full shadow at epoch
Visualization orbit readout
Latitude
Unknown
Longitude
Unknown
Altitude
Unknown
Speed
Unknown
Apparent Right ascension
Unknown
Apparent Declination
Unknown
Sunlit
N/A
Visualization observer readout
Local Sidereal Time
08:01:57
Azimuth
Unknown
Elevation
Unknown
Doppler factor
Unknown
Orbital elements
Apogee altitude
256.825 km
Perigee altitude
244.495 km
Semi-major axis
6,628.797 km
Eccentricity
0.00093
Inclination
97.4395°
RAAN
277.6553°
Arg. of periapsis
270.4587°
True anomaly
89.66948°
Mean anomaly
89.5629°
Eccentric anomaly
89.61619°
Mean motion
4.02153 °/min
Orbital period
89.52 mins
BSTAR
0.00079751
Loading maneuver chart data...
Computing Atmospheric mass density...

Documentation

Showing up to 5 results
|